TimeEDT,TemperatureF,Dew PointF,Humidity,Sea Level PressureIn,VisibilityMPH,Wind Direction,Wind SpeedMPH,Gust SpeedMPH,PrecipitationIn,Events,Conditions,WindDirDegrees,DateUTC
12:53 AM,60.1,59.0,96,29.91,10.0,SW,3.5,-,N/A,,Clear,220,2013-09-05 04:53:00
1:53 AM,60.1,57.9,93,29.91,10.0,Calm,Calm,-,N/A,,Clear,0,2013-09-05 05:53:00
2:53 AM,61.0,59.0,93,29.89,8.0,Calm,Calm,-,N/A,,Clear,0,2013-09-05 06:53:00
3:53 AM,59.0,57.9,96,29.89,10.0,SW,3.5,-,N/A,,Clear,220,2013-09-05 07:53:00
4:53 AM,57.9,57.0,97,29.88,9.0,SSW,4.6,-,N/A,,Clear,210,2013-09-05 08:53:00
5:53 AM,60.1,59.0,96,29.89,10.0,SW,4.6,-,0.01,,Clear,230,2013-09-05 09:53:00
6:53 AM,61.0,60.1,97,29.89,10.0,South,4.6,-,N/A,,Scattered Clouds,170,2013-09-05 10:53:00
7:53 AM,66.9,63.0,87,29.89,10.0,WSW,3.5,-,N/A,,Clear,250,2013-09-05 11:53:00
8:53 AM,71.1,61.0,70,29.91,10.0,WNW,5.8,-,N/A,,Mostly Cloudy,300,2013-09-05 12:53:00
9:53 AM,66.9,59.0,76,29.94,10.0,NW,6.9,-,N/A,,Overcast,310,2013-09-05 13:53:00
10:53 AM,64.0,61.0,90,29.93,10.0,Calm,Calm,-,0.00,Rain,Light Rain,0,2013-09-05 14:53:00
11:53 AM,72.0,62.1,71,29.93,10.0,North,9.2,-,0.00,,Mostly Cloudy,360,2013-09-05 15:53:00
12:53 PM,71.1,60.1,68,29.94,10.0,NNE,8.1,-,N/A,,Mostly Cloudy,20,2013-09-05 16:53:00
1:08 PM,71.6,60.8,69,29.94,10.0,NNE,10.4,-,N/A,,Mostly Cloudy,30,2013-09-05 17:08:00
1:53 PM,70.0,60.1,71,29.96,10.0,NE,10.4,-,N/A,,Overcast,50,2013-09-05 17:53:00
2:53 PM,69.1,57.9,68,29.96,10.0,NNE,9.2,-,N/A,,Mostly Cloudy,30,2013-09-05 18:53:00
3:53 PM,66.9,57.0,70,29.97,10.0,NE,8.1,-,N/A,,Overcast,50,2013-09-05 19:53:00
4:53 PM,66.0,55.9,70,29.99,10.0,NE,10.4,-,N/A,,Overcast,50,2013-09-05 20:53:00
5:53 PM,64.9,55.9,73,30.01,10.0,NNE,6.9,-,N/A,,Scattered Clouds,30,2013-09-05 21:53:00
6:53 PM,63.0,54.0,72,30.02,10.0,ENE,6.9,-,N/A,,Mostly Cloudy,60,2013-09-05 22:53:00
7:53 PM,57.9,55.0,90,30.05,10.0,Calm,Calm,-,N/A,,Mostly Cloudy,0,2013-09-05 23:53:00
8:53 PM,55.9,54.0,93,30.08,10.0,Calm,Calm,-,N/A,,Mostly Cloudy,0,2013-09-06 00:53:00
9:53 PM,53.1,52.0,96,30.09,10.0,Calm,Calm,-,N/A,,Clear,0,2013-09-06 01:53:00
10:53 PM,53.1,52.0,96,30.11,7.0,Calm,Calm,-,N/A,,Clear,0,2013-09-06 02:53:00
11:53 PM,51.1,51.1,100,30.12,10.0,Calm,Calm,-,N/A,,Clear,0,2013-09-06 03:53:00